sat.trackr.live / text

‹ back to catalog

STARLINK-36880

NORAD 67976 · 2026-038R

PAYLOAD ACTIVE UNKNOWN

§ Identity

Operator
Country
US
Launch date
2026-02-25
Launch site
AFWTR
Launch vehicle
Mass (kg)
RCS (m²)

Purposes: comms

External: N2YO · Heavens-Above · Gunter

§ Orbital elements

Epoch: 2026-09-19T23:17:04.651008Z

Period
93.90 min
Inclination
97.2856°
Eccentricity
0.0001408
Mean motion
15.33477373 rev/d
Perigee alt
464.5 km
Apogee alt
466.4 km
Semi-major
6,843.6 km
B*
6.5434e-4
RAAN
271.3400°
Arg perigee
101.5253°
Mean anomaly
258.6148°
Rev number
3,301

§ Raw data

STARLINK-368801 67976U 26038R   26262.97019272  .00021130  00000+0  65434-3 0  99902 67976  97.2856 271.3400 0001408 101.5253 258.6148 15.33477373 33015

JSON: /api/v1/satellites/67976 · /tle

For live sub-satellite position, see the globe view (requires WebGL).

§ Visibility from observer

Set your observer location to see the next 7 days of passes ≥ 10°. The values pass through the URL so the page stays shareable.

No JS? Fill the form by hand. The geolocation button needs JavaScript.